New Orleans NAS, LA

1:13 AM CDT on July 27, 2017 (GMT -0500)
New Orleans Naval Air Station

Weather History for KNBG - May, 2013

Change the Weather History Date:

Wednesday, May 1, 2013

  Actual Average Record
Temperature  
Mean Temperature 74 °F -  
Max Temperature 79 °F 80 °F 87 °F (2002)
Min Temperature 68 °F 62 °F 55 °F (1998)
Cooling Degree Days 8    
Growing Degree Days 24 (Base 50)    
Moisture  
Dew Point 67 °F    
Average Humidity 76    
Maximum Humidity 88    
Minimum Humidity 68    
Precipitation  
Precipitation 0.00 in - - ()
Sea Level Pressure  
Sea Level Pressure 29.87 in    
Wind  
Wind Speed 7 mph (SE)    
Max Wind Speed 15 mph    
Max Gust Speed 17 mph    
Visibility 7 miles    
Events Rain , Thunderstorm    
Averages and records for this station are not official NWS values.
T = Trace of Precipitation, MM = Missing Value Source: NWS Daily Summary

Daily Weather History Graph

Daily Weather History Graph

Search for Another Location

Airport or City:

Trip Planner

Search our weather history database for the weather conditions in past years. The results will help you decide how hot, cold, wet, or windy it might be!

Date:

Astronomy

May. 01, 2013 Rise Set
Actual Time 6:17 AM CDT 7:37 PM CDT
Civil Twilight 5:52 AM CDT 8:02 PM CDT
Nautical Twilight 5:21 AM CDT 8:33 PM CDT
Astronomical Twilight 4:50 AM CDT 9:04 PM CDT
Moon 12:45 AM CDT (5/1) 11:55 AM CDT (5/1)
Length of Visible Light 14h 10m
Length of Day
13h 20m
Waning Gibbous, 59% of the Moon is Illuminated
May 1
Waning Gibbous
May 2
Last Quarter
May 9
New
May 17
First Quarter
May 24
Full

Hourly Weather History & Observations

Time (CDT) Temp. Dew Point Humidity Pressure Visibility Wind Dir Wind Speed Gust Speed Precip Events Conditions
12:55 AM - - N/A% 29.88 in - North - - N/A   Unknown
1:55 AM - - N/A% 29.86 in - North - - N/A   Unknown
2:55 AM - - N/A% 29.83 in - North - - N/A   Unknown
3:55 AM - - N/A% 29.84 in - North - - N/A   Unknown
4:55 AM - - N/A% 29.86 in - North - - N/A   Unknown
6:12 AM 69.8 °F 66.2 °F 88% 29.88 in 3.0 mi Variable 3.5 mph - N/A   Overcast
6:55 AM 70.9 °F 64.4 °F 80% 29.88 in 6.0 mi Variable 3.5 mph - N/A   Haze
7:55 AM 72.0 °F 65.3 °F 79% 29.89 in 7.0 mi Variable 3.5 mph - N/A   Overcast
8:55 AM 74.1 °F 66.7 °F 78% 29.89 in 7.0 mi South 5.8 mph - N/A   Overcast
9:55 AM 75.6 °F 66.4 °F 73% 29.90 in 10.0 mi South 11.5 mph - N/A   Overcast
10:55 AM 78.8 °F 68.5 °F 71% 29.91 in 10.0 mi South 11.5 mph 17.3 mph N/A   Mostly Cloudy
11:39 AM 78.8 °F 68.0 °F 69% 29.90 in 10.0 mi South 11.5 mph 17.3 mph N/A Thunderstorm Thunderstorm
11:55 AM 79.0 °F 67.6 °F 68% 29.90 in 7.0 mi South 11.5 mph 17.3 mph N/A Rain , Thunderstorm Light Thunderstorms and Rain
12:44 PM 77.0 °F 68.0 °F 74% 29.89 in 7.0 mi Variable 6.9 mph - N/A Rain Light Rain
12:55 PM 76.8 °F 68.5 °F 75% 29.88 in 7.0 mi Variable 6.9 mph - N/A Rain Light Rain
1:55 PM 78.8 °F 71.6 °F 78% 29.86 in 7.0 mi SSE 8.1 mph - N/A   Mostly Cloudy
2:55 PM 76.6 °F 70.9 °F 82% 29.86 in 7.0 mi Variable 4.6 mph - N/A Rain Rain
3:17 PM 77.0 °F 71.6 °F 83% 29.85 in 7.0 mi WSW 8.1 mph - N/A Thunderstorm Thunderstorm
3:55 PM 77.0 °F 69.8 °F 78% 29.83 in 7.0 mi West 11.5 mph - N/A   Mostly Cloudy
4:26 PM 77.0 °F 69.8 °F 78% 29.83 in 7.0 mi WSW 6.9 mph - N/A   Mostly Cloudy
4:55 PM 77.9 °F 67.5 °F 70% 29.84 in 7.0 mi West 3.5 mph - N/A   Mostly Cloudy
5:55 PM 77.0 °F 67.1 °F 71% 29.84 in 10.0 mi North 11.5 mph - N/A   Mostly Cloudy
6:55 PM 74.3 °F 65.3 °F 73% 29.86 in 10.0 mi ENE 15.0 mph - N/A Rain Rain
7:17 PM 75.2 °F 66.2 °F 73% 29.88 in 1.5 mi ENE 15.0 mph - N/A Rain Heavy Rain
7:28 PM 73.4 °F 64.4 °F 73% 29.89 in 1.0 mi NE 11.5 mph - N/A Rain , Thunderstorm Heavy Thunderstorms and Rain
7:55 PM 71.1 °F 63.3 °F 76% 29.90 in 1.0 mi ENE 10.4 mph - N/A Rain Heavy Rain
8:14 PM 68.0 °F 62.6 °F 83% 29.89 in 7.0 mi NNE 9.2 mph - N/A Rain Light Rain
8:55 PM 71.2 °F 63.0 °F 75% 29.88 in 10.0 mi NNE 6.9 mph - N/A   Mostly Cloudy
9:55 PM 70.5 °F 61.5 °F 73% 29.90 in 10.0 mi East 4.6 mph - N/A   Overcast
10:55 PM 71.1 °F 63.3 °F 76% 29.89 in 10.0 mi Variable 3.5 mph - N/A   Overcast
11:02 PM - - N/A% 29.89 in - North - - N/A   Unknown
11:55 PM - - N/A% 29.88 in - North - - N/A   Unknown